Regional Weather Roundup
Issued by NWS

Home | Current Version | Previous Version | Graphics & Text | Print | Product List | Glossary On
Versions: 1 2 3 4 5 6 7 8 9 10 11 12 13 14 15 16 17 18 19 20 21 22 23 24 25 26 27 28 29 30 31 32 33 34 35 36 37 38 39 40 41 42 43 44 45 46 47 48 49 50
000
ASUS45 KBOU 181007
RWRCO

WEATHER ROUNDUP FOR COLORADO
NATIONAL WEATHER SERVICE DENVER/BOULDER CO
300 AM MST THU DEC 18 2014

NOTE: "FAIR" INDICATES FEW OR NO CLOUDS BELOW 12000 FEET WITH NO
SIGNIFICANT WEATHER AND/OR OBSTRUCTIONS TO VISIBILITY.

COZ001>005-013-030-031-181100-
...NORTHWEST COLORADO...

CITY           SKY/WX    TMP DP  RH WIND       PRES   REMARKS
CRAIG          CLOUDY    26  24  92 W3        30.08R FOG
HAYDEN         CLOUDY    25  21  86 SW3       30.06R
MEEKER         LGT SNOW  26  24  92 CALM      30.07R FOG
MOUNT WERNER   NOT AVBL
STEAMBOAT SPGS CLOUDY    25  24  96 CALM      30.05R
WALDEN         CLOUDY     3   0  85 CALM      30.02R VSB 1/4
$$

COZ006>008-011-181100-
...WEST CENTRAL VALLEYS...

CITY           SKY/WX    TMP DP  RH WIND       PRES   REMARKS
GRAND JUNCTION LGT RAIN  33  33 100 N6        30.08R WCI  28
MONTROSE       CLOUDY    33  32  96 CALM      30.09R FOG
EAGLE          CLOUDY    25  25 100 CALM      30.08R
RIFLE          LGT SNOW  32  31  96 W5        30.06R VSB 1   WCI  27
DELTA          LGT RAIN  37  36  98 CALM      30.08R
NUCLA          LGT SNOW  32  32 100 CALM      30.11S
$$

COZ017>023-064>068-181100-
...SOUTHWEST COLORADO...

CITY           SKY/WX    TMP DP  RH WIND       PRES   REMARKS
DURANGO        CLOUDY    29  26  89 CALM      30.08R
CORTEZ         LGT SNOW  33  32  96 CALM      30.10R FOG
PAGOSA SPRINGS FLURRIES  30  29  97 SW5       30.08R WCI  25
TELLURIDE      NOT AVBL
WOLF CREEK PAS NOT AVBL
$$

COZ009-010-012-014-032>034-037-058>063-181100-
...CENTRAL COLORADO...

CITY           SKY/WX    TMP DP  RH WIND       PRES   REMARKS
ASPEN          LGT SNOW  26  23  88 S6        30.01S FOG     WCI  19
BUENA VISTA    PTCLDY    19  15  83 W3        30.02R
COPPER MTN     LGT SNOW  19  12  73 W15       29.99S WCI   5
BERTHOUD PASS  CLOUDY    10   5  79 MISG      29.97S
COTTONWOOD PAS PTCLDY    27  18  69 CALM      30.00R
GUNNISON       MOCLDY    23  19  86 CALM      30.07S
KREMMLING      CLOUDY    14  12  92 CALM      30.06S
LEADVILLE      CLOUDY    11   7  84 NE8       29.99R WCI  -1
MONARCH PASS   CLOUDY    14  12  92 MISG      30.10R
SALIDA         PTCLDY    25  20  81 N7        30.09R WCI  18
SUNLIGHT       LGT SNOW N/A N/A N/A CALM      30.03S
WILKERSON PASS PTCLDY    18  14  86 W6        30.00S WCI   9
$$

COZ069>075-181100-
...SAN LUIS VALLEY/SANGRE DE CRISTO MOUNTAINS...

CITY           SKY/WX    TMP DP  RH WIND       PRES   REMARKS
ALAMOSA        CLOUDY    24  22  91 CALM      30.05R
LA VETA PASS   CLOUDY    21  18  86 SW8G17    29.99R FOG     WCI  12
SAGUACHE       FLURRIES  27  23  86 NW3       30.06R
$$

COZ035-036-038>040-181100-
...NORTHERN COLORADO FRONT RANGE...

CITY           SKY/WX    TMP DP  RH WIND       PRES   REMARKS
DENVER INTL AP PTCLDY    27  24  89 SW5       29.98R WCI  22
DMNS CITY PARK   N/A     27  24  91 CALM      29.99S
AURORA         PTCLDY    28  28  99 S7        29.99R WCI  20
FRONT RANGE AP PTCLDY    32  28  86 SW6       29.99S WCI  26
ERIE MUNI ARPT   N/A     20  19  97 CALM      29.99S
BOULDER MUN AP PTCLDY    28  27  93 CALM      29.99S
CENTENNIAL     PTCLDY    25  23  92 SE3       29.98R
BROOMFIELD     PTCLDY    30  25  80 CALM      29.99S
FORT COLLINS   PTCLDY    21  18  86 N5        30.00S WCI  15
LONGMONT       PTCLDY    22  19  91 CALM      30.01S
$$

COZ041-046-047-076>085-087-088-181100-
...PIKES PEAK/PALMER DIVIDE AND SOUTHERN FOOTHILLS...

CITY           SKY/WX    TMP DP  RH WIND       PRES   REMARKS
COLO. SPRINGS  FOG       28  27  96 N7        30.00R VSB 1/16WCI  21
A. F. ACADEMY  CLOUDY    31  30  99 CALM      29.98S FOG
ELLICOTT       NOT AVBL
FALCON         PTCLDY    22  21  96 NW6       29.99S WCI  14
FORT CARSON    PTCLDY    23  23  99 N6        29.98S WCI  16
LIMON          MOCLDY    19  16  88 N3        29.99R
MONUMENT HILL  PTCLDY    25  23  93 SW6       29.97R FOG     WCI  18
TRINIDAD       MOCLDY    24  19  81 W8        30.00R WCI  15
$$

COZ042>045-048>051-090-091-181100-
...NORTHEAST COLORADO...

CITY           SKY/WX    TMP DP  RH WIND       PRES   REMARKS
GREELEY ARPT   PTCLDY    16   9  73 N3        29.99S
AKRON          MOCLDY    20  18  92 W14       29.98S WCI   7
BURLINGTON     CLOUDY    25  23  92 SW5       30.01S FOG     WCI  19
WRAY           CLOUDY   N/A N/A N/A S3        30.03F
STERLING       MOCLDY    18  14  86 SW3       30.01S
HOLYOKE        NOT AVBL
FORT MORGAN    MOCLDY    19  16  89 W10       30.01R WCI   7
$$

COZ086-089-092>099-181100-
...SOUTHEAST COLORADO...

CITY           SKY/WX    TMP DP  RH WIND       PRES   REMARKS
PUEBLO         PTCLDY    21  20  96 W7        30.01S WCI  12
LA JUNTA       PTCLDY    26  24  92 SW3       30.03S
LAMAR          CLOUDY    28  26  92 CALM      30.03S FOG
SPRINGFIELD      N/A     26  25  96 N10       30.01R WCI  16
$$



USA.gov is the U.S. government's official web portal to all federal, state and local government web resources and services.